Skip Page Navigation
NASA JPL Caltech
NASA Logo - Jet Propulsion Laboratory + View the NASA Portal
+ Center for Near-Earth Object Studies
JPL Home Earth Solar System Stars & Galaxies Technology
JPL Solar System Dynamics
BODIES ORBITS EPHEMERIDES TOOLS PHYSICAL DATA DISCOVERY FAQ SITE MAP
JPL Small-Body Database Browser
Search: [ help ]  
160144 (2001 FN52)
Classification: Main-belt Asteroid          SPK-ID: 2160144
Ephemeris | Orbit Diagram | Orbital Elements | Mission Design | Physical Parameters | Discovery Circumstances | Close-Approach Data ]

[ show orbit diagram ]
Orbital Elements at Epoch 2459000.5 (2020-May-31.0) TDB
Reference: JPL 18 (heliocentric ecliptic J2000)
 Element Value Uncertainty (1-sigma)   Units 
e .1661880684159869 8.0381e-08  
a 2.985513685078198 3.5022e-08 au
q 2.489356932525557 2.5482e-07 au
i 9.784320245788976 8.0862e-06 deg
node 355.9902638469043 3.0289e-05 deg
peri 238.6247209467425 4.8773e-05 deg
M 232.5653176041744 4.92e-05 deg
tp 2459667.479009396305
(2022-Mar-28.97900940)
0.00026657 TDB
period 1884.200116235666
5.16
3.3154e-05
9.077e-08
d
yr
n .1910625081157638 3.3619e-09 deg/d
Q 3.481670437630838 4.0842e-08 au
  Orbit Determination Parameters
   # obs. used (total)      453  
   data-arc span      9976 days (27.31 yr)  
   first obs. used      1992-09-30  
   last obs. used      2020-01-23  
   planetary ephem.      DE431  
   SB-pert. ephem.      SB431-N16  
   condition code      0  
   norm. resid. RMS      .6248  
   source      ORB  
   producer      Otto Matic  
   solution date      2020-Feb-24 13:14:32  

Additional Information
 Earth MOID = 1.49612 au 
 Jupiter MOID = 1.61708 au 
 T_jup = 3.215 
[ show covariance matrix ]

Ephemeris | Orbit Diagram | Orbital Elements | Mission Design | Physical Parameters | Discovery Circumstances | Close-Approach Data ]

Physical Parameter Table
Parameter Symbol Value Units Sigma Reference Notes
absolute magnitude H 15.0   n/a MPO412927  

160144 (2001 FN52)          Discovered 2001-Mar-18 by LINEAR at Socorro
Reference: 20070730/Numbers.arcLast Updated: 2007-08-06

[ hide close-approach data ]
Close-Approach Data   ...sorted by Date/Time (TDB)
Date/Time (TDB) Time Uncertainty
(days_HH:MM)
Body Nominal Distance (au) Minimum Distance (au) Maximum Distance (au) V-relative (km/s) V-infinity (km/s) JD (TDB) Time Uncertainty (minutes) Semi-major axis (km) Semi-minor axis (km) range-LOV angle (deg) N-sigma BP Orbit Ref. Reference Modified
1906-Oct-12 13:24 00:07 Jupiter 1.95496586823932 1.95496144737018 1.95497028908345 2.02232942238324 1.79535009575136 2417496.058489842 7.24789337419211 162.852972746818 63.065894164293 -27.1174580524423 231781.691480109 T 18 CATAB v2.0f-lin.ifort 2020-Feb-24 13:14:34 2020-Feb-24 13:14
1915-May-26 05:09 00:06 Jupiter 1.91077304859982 1.91076821684586 1.9107778803768 3.82515016215578 3.70745168841751 2420643.714425412 5.67683888945287 443.172513312019 81.6571674705247 62.7438399037226 787616.692216732 T 18 CATAB v2.0f-lin.ifort 2020-Feb-24 13:14:34 2020-Feb-24 13:14
1952-Jan-03 00:34 00:04 Jupiter 1.62930929488468 1.6293074569377 1.6293111328601 2.80238779636019 2.61029602708547 2434014.523538273 3.58659933554732 1426.25772130542 52.2949714094294 89.5741938780814 740002.431332856 T 18 CATAB v2.0f-lin.ifort 2020-Feb-24 13:14:34 2020-Feb-24 13:14
1988-Aug-17 22:21 00:02 Jupiter 1.66005933975944 1.66005845675494 1.66006022277858 1.66081585762907 1.31827035786803 2447391.430953217 1.58931107744192 440.07391106428 223.073800023002 73.4671470332364 816832.527422055 T 18 CATAB v2.0f-lin.ifort 2020-Feb-24 13:14:34 2020-Feb-24 13:14
2025-May-28 00:41 < 00:01 Jupiter 1.92836382297008 1.92836298627417 1.92836465966587 1.95875986190441 1.71995694991891 2460823.528349161 0.644625892272021 87.2273337045367 39.3681157809958 -68.31052064511 1572761.75342139 T 18 CATAB v2.0f-lin.ifort 2020-Feb-24 13:14:34 2020-Feb-24 13:14
2034-Jan-04 15:45 00:01 Jupiter 1.93692628783419 1.93692551050832 1.93692706516083 3.93924828819384 3.82662674877922 2463967.156050799 1.17730807137614 183.788477757681 29.9431286045431 84.6889913473277 1801939.94550902 T 18 CATAB v2.0f-lin.ifort 2020-Feb-24 13:14:34 2020-Feb-24 13:14
2070-Aug-14 17:43 00:03 Jupiter 1.65074010617666 1.65073913591277 1.65074107644036 2.79609011901987 2.60612476896276 2477338.238072457 3.0801043103279 1279.33567611459 29.4524760196096 88.7644744104767 1210479.88236312 T 18 CATAB v2.0f-lin.ifort 2020-Feb-24 13:14:34 2020-Feb-24 13:14
2107-Apr-04 03:42 00:06 Jupiter 1.66047606676297 1.66047419494764 1.66047793864163 1.55687018369545 1.18474820055563 2490718.653978572 5.79210364530908 777.763406267712 448.812493483701 -41.8002559486695 456952.457824725 T 18 CATAB v2.0f-lin.ifort 2020-Feb-24 13:14:34 2020-Feb-24 13:14
2144-Jan-10 03:38 00:08 Jupiter 1.90125267749056 1.90124887771856 1.90125647723856 1.90484910578677 1.65451954277657 2504148.651205383 8.30280544008045 356.123508316355 63.4397285227316 -31.8511607827279 400488.510062114 T 18 CATAB v2.0f-lin.ifort 2020-Feb-24 13:14:34 2020-Feb-24 13:14
2152-Aug-15 13:25 00:08 Jupiter 1.9636480983333 1.9636430055327 1.96365319114427 4.05873652166526 3.95103014286923 2507289.058873634 7.84084682310204 364.449494175986 99.5805416086528 53.4101533645661 699279.215144477 T 18 CATAB v2.0f-lin.ifort 2020-Feb-24 13:14:34 2020-Feb-24 13:14
2189-Mar-25 19:15 00:10 Jupiter 1.67329353538799 1.67329092397848 1.67329614728479 2.79512418859724 2.60774186647351 2520660.301940576 9.91022132852682 1812.4040038426 42.8170264147467 -89.7410851244238 837400.538923949 T 18 CATAB v2.0f-lin.ifort 2020-Feb-24 13:14:34 2020-Feb-24 13:14

Alternate Designations
 2001 FN52 = 2002 QY43 
Ephemeris | Orbit Diagram | Orbital Elements | Mission Design | Physical Parameters | Discovery Circumstances | Close-Approach Data ]
ABOUT SSD CREDITS/AWARDS PRIVACY/COPYRIGHT GLOSSARY LINKS
FirstGov 2020-Jul-13 00:42 UT
(server date/time)  
NASA Home Page
Site Manager:   Ryan S. Park
Webmaster  Alan B. Chamberlin